Wind_Speed
53 53 54 56 56 55 53 50 47 45 43 42 43 43 42 42 42 43 44 46 47 46 44 43 41 39 37 37 36 34 32 31 30 29 28 27 27 27 27 28 28 27 26 24 23 22 23 26 29 32 35 37 41 45 49 54 56 56 57 58 60 61 62
54 53 53 54 56 56 53 50 48 45 43 42 42 42 42 42 42 42 43 45 47 47 46 45 43 40 39 38 38 36 33 32 31 30 29 28 28 27 27 27 28 27 26 25 24 22 23 24 26 29 32 36 40 44 46 50 55 56 56 57 59 60 62
54 54 52 53 56 56 55 51 47 45 43 41 41 41 42 42 41 42 42 43 45 47 47 46 45 43 40 40 39 37 35 34 32 31 30 29 29 28 27 27 27 27 26 25 24 23 22 23 23 25 28 33 38 42 44 46 51 56 56 56 58 60 61
54 54 52 52 54 57 56 51 47 45 42 41 41 41 41 42 42 42 42 42 44 46 47 48 47 45 42 41 41 39 37 35 34 32 31 31 30 29 27 26 27 27 26 25 24 24 23 23 23 23 24 29 34 39 43 45 47 52 56 57 57 58 60
54 53 52 50 52 56 55 51 47 43 41 40 41 41 41 42 42 42 42 42 43 45 47 48 48 47 44 43 42 41 39 37 36 34 33 32 32 30 27 26 27 26 26 26 24 23 24 23 23 23 23 24 29 34 39 43 46 49 53 56 57 57 58
54 53 51 49 50 54 55 51 47 42 39 39 40 41 41 42 42 42 42 42 43 44 46 48 48 48 46 45 43 42 40 38 38 36 34 33 33 32 29 26 26 26 26 25 24 23 23 23 23 23 22 22 24 29 34 40 45 48 51 54 57 58 58
53 51 49 47 49 52 53 51 46 41 37 38 39 40 41 42 42 42 42 42 42 43 45 47 48 48 48 46 44 42 41 40 39 38 35 34 34 33 30 27 26 27 26 25 24 24 23 23 24 23 22 22 22 24 28 35 41 46 50 52 55 57 58
50 49 48 46 47 51 52 51 45 38 36 36 37 39 41 42 42 41 41 41 41 42 43 45 47 48 48 46 44 42 42 41 40 39 37 35 35 34 31 28 27 27 26 25 24 24 23 23 23 24 23 21 20 21 23 28 35 43 48 51 53 55 57
48 47 46 45 46 49 51 49 42 35 34 35 36 38 40 42 41 41 41 41 41 41 42 44 46 47 47 46 44 43 42 41 40 39 38 36 36 34 31 29 29 28 26 25 24 24 23 23 23 24 23 21 20 19 20 24 30 37 44 49 52 53 56
47 45 45 43 44 47 48 45 38 32 32 34 36 37 40 41 41 41 41 40 40 40 41 42 43 44 45 45 44 43 43 42 40 39 38 37 36 35 32 30 29 28 26 25 24 23 23 23 23 24 23 21 20 18 18 20 24 30 37 44 50 53 55
47 45 44 42 41 43 44 41 34 30 31 33 35 37 39 40 41 41 40 40 40 39 39 39 41 42 43 44 44 44 43 42 40 38 37 37 37 35 32 30 29 28 27 26 24 23 23 23 23 24 23 22 20 18 16 17 19 24 30 37 45 51 54
47 45 43 40 38 39 40 37 33 30 31 33 34 37 39 39 40 40 40 39 38 37 37 38 39 40 41 41 42 43 43 42 40 38 37 37 37 35 32 30 29 29 28 25 24 23 23 23 23 24 24 23 21 18 15 15 17 19 24 31 38 46 52
47 45 42 39 37 37 37 36 33 31 32 33 33 36 39 39 38 39 39 38 37 36 36 36 37 38 38 39 39 41 43 41 39 38 37 37 37 34 31 29 29 29 27 25 24 23 22 23 23 23 24 23 21 18 16 15 15 16 20 25 31 39 46
46 44 42 39 36 36 38 37 34 32 32 33 33 35 38 40 38 38 37 36 35 35 35 35 35 36 36 36 37 39 40 40 39 38 37 37 36 33 30 29 28 28 27 26 24 22 22 24 23 23 24 23 20 18 17 16 15 15 17 20 25 32 39
45 43 41 39 37 37 39 38 35 32 32 33 33 34 37 40 40 37 35 34 34 34 33 33 34 34 34 34 35 36 36 37 38 38 37 36 34 31 30 29 27 27 27 26 24 22 23 24 24 23 24 23 20 18 18 17 15 14 14 16 20 25 31
44 41 40 39 37 38 40 39 35 33 32 32 32 34 37 39 39 37 34 33 32 32 32 32 32 32 33 33 34 34 34 35 36 37 37 35 32 30 30 28 26 26 27 26 25 24 23 24 24 24 24 22 19 18 18 17 15 13 13 15 16 20 23
42 40 39 38 37 38 41 39 35 32 31 31 32 34 37 38 37 35 33 31 31 31 31 31 31 31 32 32 33 32 32 33 34 35 35 32 30 30 29 27 25 26 26 26 26 25 24 25 25 24 23 22 19 18 18 17 14 14 15 14 13 16 18
40 38 38 37 36 37 40 39 34 31 30 31 32 34 36 37 35 33 31 30 30 29 29 29 30 31 32 31 31 30 31 32 33 33 32 31 30 29 28 25 24 25 26 27 27 27 26 26 25 24 24 22 19 19 18 15 15 17 16 13 13 15 16
38 37 36 34 33 36 39 37 33 30 29 30 31 34 35 35 33 31 29 29 29 29 28 28 29 31 32 30 29 30 30 30 31 32 30 29 30 29 26 24 24 25 26 26 26 27 27 26 25 25 24 22 20 20 18 15 16 18 16 14 15 16 15
36 35 33 31 31 34 36 35 32 29 29 30 31 33 34 33 31 29 28 28 28 28 27 27 28 30 31 29 29 29 29 29 29 29 28 29 30 27 24 24 24 24 24 25 26 26 27 28 27 26 26 24 22 21 18 15 15 16 15 15 17 17 17
34 32 30 29 30 32 33 33 31 28 28 30 31 31 32 31 29 27 27 27 27 26 26 25 26 29 29 29 28 28 28 27 27 26 26 28 28 25 22 23 23 23 23 25 26 26 27 28 29 28 27 25 23 21 18 16 15 15 14 14 16 17 18
31 29 28 28 29 31 32 31 29 27 28 29 30 30 30 29 27 26 26 26 25 25 24 24 26 28 28 28 28 27 26 26 25 25 25 25 25 24 23 23 22 22 24 25 25 25 25 26 27 27 27 26 24 21 19 18 17 16 15 15 15 16 17
29 27 26 26 28 30 30 30 27 26 27 28 29 29 28 27 25 25 25 25 24 23 23 24 26 27 27 27 26 25 25 25 26 26 25 24 24 23 23 23 23 23 24 24 25 25 24 24 25 26 27 26 25 23 21 21 19 18 17 17 17 17 15
26 25 24 25 27 29 29 28 26 26 26 27 27 27 26 25 24 24 24 23 23 23 23 24 24 25 24 24 24 24 24 25 27 28 28 28 27 26 24 24 24 24 22 22 23 25 24 23 23 24 25 25 25 24 23 23 22 21 21 20 19 18 15
24 24 24 25 27 28 28 27 26 25 25 25 26 25 24 23 24 24 23 22 22 22 23 23 23 23 23 23 24 25 27 28 29 31 32 33 32 31 29 27 26 26 24 22 22 24 23 21 21 22 22 23 24 25 25 25 25 24 24 22 20 18 16
22 22 23 24 26 27 27 26 24 23 23 24 24 23 22 22 23 23 23 22 22 22 22 23 24 24 24 25 27 30 32 33 34 34 35 36 36 35 33 30 28 28 27 26 25 23 21 19 19 20 21 23 25 26 26 26 26 25 24 22 20 19 17
20 21 23 24 25 25 25 24 22 22 22 22 22 21 21 22 22 22 22 22 22 23 24 25 25 25 25 26 29 31 34 36 36 35 36 37 38 37 35 33 31 30 30 28 27 25 21 19 18 20 22 24 25 26 26 26 26 26 24 22 21 20 18
20 22 24 25 25 24 24 22 21 20 20 21 21 20 20 21 21 22 22 22 23 25 26 26 26 27 27 27 29 32 35 36 37 37 38 39 39 38 36 35 33 32 31 29 28 26 23 21 20 20 21 24 25 25 26 27 26 26 25 24 23 22 19
22 23 24 23 23 22 21 20 19 19 20 20 20 20 20 20 20 21 22 23 24 25 26 26 27 27 28 27 29 33 36 37 38 38 38 39 39 37 36 36 35 33 31 30 29 27 25 23 23 22 22 23 23 24 25 27 27 26 26 26 24 23 20
21 22 21 20 20 20 19 19 18 19 19 19 19 19 19 19 20 21 22 23 24 24 24 24 24 23 23 24 27 32 35 37 38 38 37 37 37 36 36 36 35 33 31 30 29 27 26 25 25 24 24 24 23 23 23 25 26 27 27 27 25 24 23
19 20 19 19 19 19 18 18 18 18 18 18 18 18 19 20 21 21 22 23 23 23 23 23 23 23 23 24 26 30 33 35 36 36 36 35 35 34 35 35 33 30 28 27 27 26 26 26 25 25 25 25 25 24 24 24 25 26 27 27 26 25 24
19 19 19 18 18 17 17 17 16 17 16 16 17 18 19 20 21 21 22 23 23 23 23 24 24 24 25 26 28 29 31 33 34 34 34 34 33 33 33 32 29 26 25 25 26 26 25 24 24 24 24 25 26 26 26 25 25 25 25 26 27 26 25
19 19 18 18 17 17 16 15 15 16 16 16 17 18 19 20 20 21 21 22 24 25 25 26 26 26 26 26 27 28 30 31 32 32 32 32 32 32 31 29 27 26 26 26 25 25 25 24 24 24 24 25 26 26 26 27 27 26 25 25 27 27 27
18 18 17 17 17 15 14 14 15 16 16 17 17 17 18 20 21 22 22 24 25 26 26 26 26 25 24 23 24 26 28 29 29 29 30 30 31 31 30 28 27 27 26 26 26 26 26 25 25 24 25 25 26 26 26 27 28 27 26 26 26 27 28
17 17 15 14 14 13 14 15 15 15 16 18 18 19 19 20 21 21 22 23 25 25 25 24 23 22 22 23 25 26 27 27 28 28 28 29 29 29 29 28 28 27 27 27 27 27 27 26 25 26 26 26 26 26 26 27 27 27 27 27 26 26 27
16 15 13 11 11 12 13 15 15 16 18 19 19 19 19 19 19 20 21 22 23 23 23 23 22 22 23 24 25 25 26 26 27 28 28 28 28 28 28 28 28 28 27 28 28 28 27 27 27 27 27 27 27 27 27 27 27 27 27 27 27 27 27
Wind_Direction
294 291 282 271 263 259 258 261 265 270 276 278 277 272 266 261 259 258 255 253 250 250 251 252 253 253 253 254 254 255 256 258 261 264 267 270 271 272 274 275 277 276 273 270 269 265 261 260 259 255 248 242 240 239 235 232 232 231 229 228 228 226 225
294 293 288 277 266 258 256 258 261 267 273 277 275 271 267 262 259 258 256 253 251 250 249 250 251 251 251 252 253 254 255 256 259 262 265 268 270 271 273 275 277 277 275 271 269 266 261 261 262 259 253 246 241 240 238 234 232 232 231 230 229 227 226
294 293 292 284 271 260 255 255 259 263 271 276 273 269 265 262 258 257 255 254 252 250 249 249 249 250 250 251 253 253 254 256 258 261 264 266 268 269 271 273 275 277 277 273 269 267 263 261 264 263 258 250 243 240 239 237 234 234 233 232 230 229 227
294 292 292 288 277 264 256 254 257 261 268 274 272 267 263 260 258 256 254 253 252 250 249 249 248 248 248 249 251 252 253 255 257 259 263 265 267 269 270 272 274 276 277 274 270 269 267 263 265 267 263 255 248 242 238 237 236 235 235 234 233 231 229
293 291 290 288 281 268 257 252 254 259 266 273 273 267 261 258 256 255 253 252 251 249 248 248 248 248 247 248 249 251 252 254 256 257 260 263 266 269 269 270 272 275 277 275 271 270 269 266 265 268 267 261 252 245 240 237 236 236 236 235 235 233 231
291 290 289 287 281 269 257 251 252 257 264 271 272 267 261 257 255 254 253 251 250 249 248 248 248 248 247 247 248 250 251 253 255 257 258 261 264 267 269 270 271 273 275 275 273 270 270 268 267 268 270 267 259 250 243 238 236 236 236 236 236 235 234
290 290 287 285 280 271 258 250 250 255 263 270 271 268 262 257 254 253 253 252 251 249 248 248 248 247 247 247 247 249 250 251 254 256 257 259 262 265 268 269 270 271 273 275 273 270 270 269 268 268 270 270 265 257 248 241 237 235 235 236 235 236 236
291 290 287 283 279 271 258 250 249 254 263 270 269 266 262 257 254 253 252 252 250 249 248 247 247 247 247 247 247 248 249 250 252 254 256 257 260 263 266 268 268 269 271 273 272 270 270 270 269 268 269 271 269 263 253 245 238 235 234 235 235 235 236
293 289 287 284 279 271 259 249 248 255 264 270 268 264 261 257 254 252 251 251 250 248 246 246 246 246 246 247 247 247 248 249 250 252 254 256 258 260 263 265 266 267 268 270 270 269 269 270 269 267 267 270 272 268 259 249 242 238 235 233 234 234 236
293 289 287 284 279 271 259 249 249 256 264 268 267 263 259 256 253 251 250 250 249 247 246 245 246 246 246 246 246 246 247 248 248 250 252 254 256 258 260 262 264 265 266 267 268 267 267 269 269 266 265 268 272 272 266 256 247 241 237 234 233 233 234
294 289 286 284 280 271 257 248 250 257 263 265 265 263 258 254 252 250 249 249 249 247 246 245 245 245 245 245 245 246 246 247 247 248 250 252 254 256 257 258 260 262 262 264 265 264 264 267 267 264 263 264 268 272 272 265 254 244 239 236 234 233 233
295 290 286 283 278 268 254 248 252 258 261 263 263 262 259 253 250 250 250 249 249 248 246 245 244 243 243 244 245 245 246 246 246 247 248 250 252 253 254 255 256 258 259 260 261 261 261 263 264 263 261 261 263 269 273 269 260 250 241 237 234 233 233
294 289 284 281 275 262 250 247 252 256 259 262 261 260 259 254 249 248 250 250 249 248 246 244 243 242 242 242 243 244 244 244 245 245 246 248 250 251 252 252 253 255 256 257 257 257 258 259 260 260 259 258 259 263 267 268 265 257 247 239 235 233 232
292 287 282 278 270 257 246 245 250 254 257 260 260 258 257 255 250 246 248 250 249 247 245 244 243 242 241 241 242 243 243 243 243 244 244 246 248 249 250 250 249 251 253 254 253 251 253 255 257 258 257 256 255 255 259 263 266 264 256 247 241 236 233
291 285 279 275 266 253 245 245 248 251 254 257 258 255 253 253 252 248 246 248 248 247 245 243 242 241 240 240 240 242 242 241 241 242 242 244 246 247 247 247 246 248 249 249 247 243 245 250 253 254 255 255 252 251 253 256 260 265 264 256 249 243 237
290 284 278 272 263 251 245 245 247 249 252 254 255 253 250 250 251 250 248 246 246 246 246 243 241 240 239 239 239 240 241 240 239 239 240 242 243 244 245 245 244 244 245 245 241 237 238 244 248 250 252 253 251 248 248 251 253 256 259 256 253 250 245
289 282 275 269 261 250 245 245 246 248 250 252 252 250 249 249 250 250 250 248 245 244 243 243 241 239 237 236 237 239 239 238 237 237 238 239 240 242 244 244 242 240 240 239 237 233 233 238 243 246 249 249 248 245 245 245 244 245 249 252 254 253 250
288 281 273 268 261 249 244 245 245 246 248 250 249 248 248 248 249 249 248 247 246 243 241 240 239 237 235 234 234 236 236 235 235 235 236 237 238 240 242 242 239 237 236 234 232 230 231 234 238 242 245 246 245 245 244 239 237 240 243 243 244 247 248
287 280 273 268 259 249 245 245 244 243 245 246 246 246 247 247 247 248 247 245 245 243 240 237 234 233 234 232 232 233 233 232 232 233 233 235 237 238 239 239 236 233 233 233 229 226 227 232 234 236 240 242 242 244 244 237 235 239 238 234 235 237 240
286 280 273 265 256 247 244 243 242 240 241 243 243 244 246 246 246 247 246 244 243 242 239 235 230 229 230 230 230 231 230 229 229 229 230 233 236 237 236 235 234 231 229 231 230 224 222 226 230 233 236 238 240 244 245 241 238 238 232 228 231 232 232
285 279 270 261 252 245 243 242 240 237 237 239 240 241 244 245 245 245 243 242 241 240 238 233 227 225 227 227 228 229 228 225 224 223 226 231 235 235 232 230 231 229 227 228 230 226 223 224 228 233 237 240 242 245 248 246 242 240 233 228 229 229 228
283 276 266 257 248 243 241 241 239 235 234 237 238 240 242 243 243 242 241 240 239 238 235 229 223 222 224 225 226 227 225 221 215 212 218 227 232 231 228 226 225 224 225 226 228 228 226 225 226 231 235 238 241 244 246 244 240 237 237 236 233 229 225
280 272 262 253 245 241 240 240 237 233 232 235 237 238 240 241 240 239 239 238 236 234 230 223 219 219 221 222 223 224 221 213 205 202 208 217 222 224 224 224 221 220 224 227 229 230 230 228 226 227 231 234 235 237 239 240 236 232 232 234 236 234 228
276 267 257 248 242 240 239 237 233 231 231 234 236 237 238 238 238 237 237 235 232 228 223 219 216 217 219 220 220 217 213 206 202 202 207 212 215 217 218 218 217 217 221 227 231 232 233 232 231 230 230 231 232 231 231 231 231 230 228 227 230 234 233
273 262 251 241 238 238 237 235 231 229 230 232 234 236 236 236 236 235 234 231 228 223 218 214 213 213 213 213 211 208 204 201 201 204 207 211 215 217 217 218 217 216 217 222 229 232 232 232 233 232 231 230 230 230 228 226 226 229 230 228 227 230 231
267 256 245 238 236 237 236 234 229 228 230 231 233 234 234 233 233 232 230 227 222 217 213 210 210 210 208 207 206 205 203 201 202 205 208 212 216 218 219 220 221 221 220 222 226 230 228 227 227 228 228 229 230 230 229 228 227 229 232 231 230 230 228
258 247 239 235 234 235 235 233 228 227 229 231 232 231 231 231 230 229 226 222 216 212 211 211 210 208 207 208 209 209 207 207 207 208 210 212 215 217 219 222 224 225 226 226 229 232 231 229 227 225 225 228 231 232 233 232 231 232 233 234 234 233 230
248 236 231 232 234 237 236 231 227 227 229 230 229 228 228 228 226 224 222 218 215 214 214 212 209 207 208 210 210 209 210 211 212 213 214 216 217 219 220 223 226 229 231 232 233 236 236 235 233 229 227 230 232 233 236 237 236 236 236 236 237 237 235
245 236 232 234 237 238 234 228 225 227 227 226 226 225 223 222 222 221 219 217 217 218 217 214 213 212 213 212 209 208 210 213 215 217 218 219 220 221 222 225 228 231 232 234 236 239 240 239 238 235 234 234 234 233 234 237 238 238 238 237 238 240 241
244 239 236 236 236 232 227 223 224 226 226 224 224 222 219 217 217 217 218 219 220 222 222 220 218 215 212 210 208 207 210 214 216 218 219 220 221 222 223 227 230 231 232 234 236 239 241 240 239 238 237 237 237 236 235 236 236 237 238 239 239 240 242
237 235 234 232 230 225 222 223 225 225 224 224 223 219 216 215 214 213 215 218 220 222 222 221 218 215 212 211 209 208 210 213 216 218 219 221 222 223 225 228 230 231 231 232 234 236 238 238 238 238 238 238 238 238 238 237 236 235 237 240 241 240 241
229 229 228 227 224 221 219 221 223 221 221 221 219 216 214 214 213 212 213 216 218 220 222 222 221 219 218 216 214 212 211 213 215 217 219 221 223 225 228 230 230 229 229 231 232 234 236 237 238 238 238 237 237 237 237 238 239 238 237 238 240 241 241
226 225 224 222 220 218 218 220 219 217 214 212 213 214 212 211 212 213 213 214 217 220 222 224 224 224 222 220 218 216 215 215 215 216 219 221 222 225 228 229 229 228 228 230 232 235 237 238 238 238 239 238 238 237 236 236 239 240 239 237 237 238 240
225 224 222 219 217 216 215 215 214 212 209 206 207 210 211 211 213 213 213 215 219 222 224 226 228 228 226 223 220 217 216 215 215 215 216 218 219 222 224 226 227 228 229 232 235 237 239 240 240 240 240 240 239 239 237 236 236 238 239 239 238 237 238
223 221 219 218 217 215 214 212 209 206 205 205 206 208 211 214 216 217 218 220 223 226 229 230 231 229 225 222 220 217 215 214 214 214 214 214 215 217 219 223 227 230 232 236 238 239 241 243 243 242 242 241 240 240 239 237 236 235 236 238 239 238 238
218 213 209 210 213 214 213 210 206 203 207 210 211 212 214 216 217 219 220 221 224 226 228 229 227 224 221 220 219 218 216 214 214 214 214 215 216 217 220 224 229 233 236 238 240 241 242 243 243 243 243 241 241 240 239 238 237 235 234 235 237 238 238
Height
2860 2858 2855 2854 2852 2851 2852 2852 2853 2854 2854 2853 2854 2854 2855 2855 2856 2857 2858 2859 2861 2862 2864 2866 2867 2869 2871 2871 2871 2872 2873 2873 2873 2873 2874 2874 2874 2873 2873 2873 2872 2872 2872 2872 2872 2872 2872 2871 2870 2871 2872 2875 2877 2880 2883 2887 2889 2893 2897 2901 2904 2908 2911
2853 2850 2848 2846 2844 2843 2843 2844 2845 2846 2846 2846 2846 2846 2847 2848 2849 2850 2852 2853 2854 2856 2858 2859 2861 2863 2865 2866 2866 2867 2868 2869 2869 2869 2870 2870 2870 2870 2870 2869 2869 2868 2868 2868 2868 2869 2869 2868 2868 2868 2869 2871 2874 2876 2878 2881 2884 2886 2890 2894 2898 2901 2905
2845 2843 2840 2838 2837 2836 2835 2835 2836 2838 2839 2839 2839 2839 2840 2841 2842 2843 2844 2846 2847 2849 2850 2852 2854 2857 2859 2860 2861 2862 2864 2864 2865 2865 2865 2866 2866 2866 2866 2866 2865 2865 2865 2864 2864 2865 2865 2865 2865 2866 2866 2867 2869 2871 2873 2876 2878 2880 2884 2888 2891 2894 2898
2838 2835 2833 2831 2829 2828 2827 2828 2829 2830 2831 2831 2831 2832 2832 2833 2835 2836 2837 2839 2841 2842 2843 2845 2847 2850 2853 2854 2855 2857 2859 2860 2860 2861 2861 2861 2862 2862 2863 2863 2862 2862 2861 2861 2861 2861 2862 2862 2863 2863 2864 2864 2865 2866 2868 2870 2872 2875 2878 2882 2885 2888 2891
2830 2827 2825 2823 2821 2820 2819 2820 2821 2822 2823 2824 2824 2825 2825 2826 2827 2828 2830 2832 2834 2835 2836 2838 2840 2843 2846 2848 2849 2851 2854 2855 2856 2856 2857 2857 2857 2858 2859 2859 2859 2859 2858 2858 2858 2858 2858 2859 2859 2860 2861 2861 2861 2862 2863 2865 2867 2870 2873 2876 2879 2882 2885
2822 2819 2817 2815 2813 2812 2811 2812 2814 2815 2816 2817 2817 2818 2818 2819 2820 2821 2823 2825 2827 2828 2829 2831 2833 2836 2839 2841 2843 2846 2848 2850 2850 2851 2853 2853 2853 2854 2855 2855 2855 2855 2855 2855 2855 2855 2855 2855 2856 2857 2858 2858 2858 2858 2859 2860 2863 2865 2868 2871 2873 2876 2879
2814 2812 2809 2808 2805 2804 2804 2805 2807 2808 2809 2810 2810 2811 2812 2812 2814 2815 2816 2818 2820 2822 2823 2824 2827 2829 2831 2834 2838 2840 2842 2844 2845 2846 2848 2849 2849 2849 2850 2851 2851 2852 2852 2852 2852 2852 2852 2852 2853 2854 2854 2854 2854 2854 2855 2856 2858 2861 2863 2866 2868 2870 2873
2807 2804 2802 2800 2798 2797 2796 2798 2800 2802 2803 2803 2804 2804 2805 2805 2807 2809 2810 2811 2813 2815 2817 2818 2820 2822 2824 2827 2831 2834 2836 2838 2840 2841 2843 2844 2845 2845 2846 2847 2847 2848 2848 2849 2848 2849 2849 2849 2850 2850 2850 2850 2850 2850 2851 2852 2854 2856 2858 2860 2862 2864 2867
2799 2797 2794 2792 2791 2789 2789 2791 2794 2796 2797 2797 2797 2798 2798 2799 2800 2802 2803 2805 2806 2808 2810 2811 2813 2815 2818 2821 2825 2828 2830 2832 2834 2836 2838 2839 2840 2841 2842 2843 2843 2844 2845 2845 2845 2845 2846 2846 2846 2846 2846 2847 2847 2847 2848 2848 2849 2851 2853 2855 2856 2858 2861
2792 2790 2787 2785 2784 2783 2783 2785 2788 2789 2790 2791 2791 2791 2791 2792 2794 2796 2797 2798 2800 2802 2803 2805 2807 2810 2812 2815 2818 2821 2823 2826 2828 2830 2832 2834 2835 2836 2838 2838 2839 2840 2841 2841 2842 2842 2842 2842 2843 2843 2843 2843 2843 2844 2844 2844 2845 2846 2847 2849 2851 2853 2856
2785 2783 2781 2778 2777 2777 2778 2780 2782 2783 2784 2784 2784 2785 2785 2786 2788 2789 2791 2792 2794 2796 2798 2800 2802 2804 2806 2809 2811 2814 2817 2820 2822 2825 2827 2828 2830 2832 2833 2834 2835 2836 2837 2838 2838 2839 2839 2839 2839 2839 2839 2840 2840 2841 2841 2841 2841 2842 2843 2844 2846 2848 2851
2778 2776 2774 2772 2771 2771 2772 2775 2776 2777 2778 2778 2778 2778 2778 2780 2782 2783 2784 2786 2788 2791 2793 2794 2796 2798 2801 2803 2806 2808 2810 2813 2816 2819 2821 2823 2825 2827 2828 2830 2831 2832 2833 2834 2835 2835 2835 2836 2836 2835 2836 2836 2837 2838 2838 2838 2837 2838 2839 2840 2841 2844 2847
2771 2769 2767 2766 2765 2765 2767 2769 2770 2771 2772 2773 2773 2773 2772 2773 2777 2778 2779 2781 2783 2785 2787 2789 2790 2793 2795 2798 2800 2802 2804 2807 2811 2813 2816 2817 2819 2822 2824 2826 2827 2827 2828 2830 2831 2832 2832 2832 2832 2832 2832 2832 2834 2835 2835 2835 2834 2834 2835 2836 2837 2839 2842
2764 2762 2761 2759 2759 2759 2761 2762 2763 2765 2766 2766 2767 2768 2767 2767 2770 2773 2774 2776 2778 2780 2782 2783 2785 2787 2790 2793 2794 2796 2798 2802 2805 2807 2810 2812 2814 2817 2820 2821 2822 2823 2824 2826 2827 2828 2829 2828 2829 2829 2829 2829 2830 2831 2832 2832 2832 2832 2832 2833 2834 2835 2837
2756 2755 2754 2753 2752 2753 2754 2756 2757 2759 2760 2760 2761 2763 2762 2761 2763 2766 2769 2771 2773 2775 2776 2778 2780 2782 2785 2787 2789 2791 2794 2797 2799 2802 2804 2806 2809 2812 2815 2816 2818 2819 2820 2821 2823 2825 2825 2825 2826 2826 2826 2826 2827 2828 2828 2829 2830 2830 2831 2831 2831 2832 2834
2749 2748 2747 2746 2746 2746 2748 2750 2751 2752 2754 2755 2756 2757 2757 2756 2757 2761 2764 2766 2768 2770 2771 2773 2775 2777 2780 2782 2784 2787 2789 2791 2794 2796 2799 2802 2805 2808 2809 2812 2814 2815 2816 2817 2819 2820 2821 2822 2822 2823 2823 2824 2825 2825 2826 2826 2828 2829 2829 2829 2829 2830 2831
2741 2740 2739 2738 2739 2740 2742 2744 2745 2747 2748 2749 2750 2751 2750 2751 2753 2756 2759 2761 2764 2765 2767 2768 2770 2773 2775 2777 2780 2783 2785 2786 2788 2791 2794 2797 2800 2803 2805 2808 2810 2811 2812 2814 2815 2816 2817 2818 2819 2820 2821 2822 2822 2823 2823 2824 2826 2827 2827 2828 2829 2829 2829
2733 2732 2732 2731 2733 2735 2736 2738 2740 2741 2742 2743 2744 2745 2745 2746 2749 2752 2755 2757 2758 2760 2762 2764 2766 2768 2770 2773 2776 2778 2780 2782 2784 2787 2790 2793 2796 2798 2801 2804 2805 2806 2808 2810 2811 2812 2814 2814 2816 2817 2818 2819 2820 2820 2821 2823 2824 2824 2825 2827 2828 2828 2828
2726 2725 2725 2726 2727 2729 2731 2733 2734 2736 2737 2737 2738 2739 2740 2742 2745 2748 2750 2752 2754 2755 2758 2760 2762 2763 2766 2769 2772 2774 2776 2778 2780 2783 2787 2790 2791 2794 2798 2800 2801 2802 2804 2806 2808 2810 2811 2811 2812 2814 2814 2816 2817 2817 2818 2820 2821 2821 2823 2825 2825 2826 2827
2720 2719 2719 2720 2722 2724 2726 2727 2729 2731 2731 2732 2733 2734 2736 2738 2741 2744 2746 2748 2749 2751 2753 2755 2757 2759 2762 2765 2768 2770 2772 2775 2777 2780 2784 2786 2787 2791 2795 2796 2796 2798 2801 2802 2804 2806 2807 2808 2809 2810 2811 2813 2814 2815 2816 2818 2819 2820 2821 2822 2823 2824 2825
2714 2714 2714 2715 2717 2719 2721 2723 2724 2726 2726 2727 2728 2730 2731 2734 2737 2740 2742 2743 2745 2747 2749 2751 2754 2756 2759 2762 2764 2766 2769 2772 2775 2778 2780 2782 2784 2789 2792 2792 2793 2795 2797 2799 2801 2802 2804 2805 2806 2807 2808 2810 2812 2813 2815 2816 2817 2818 2819 2820 2821 2823 2824
2708 2708 2709 2710 2712 2714 2716 2718 2719 2721 2721 2722 2724 2726 2728 2730 2733 2736 2737 2739 2741 2743 2745 2748 2750 2752 2755 2758 2761 2764 2766 2770 2773 2775 2777 2779 2782 2785 2787 2788 2790 2792 2794 2795 2797 2799 2801 2803 2804 2805 2807 2808 2810 2812 2813 2815 2816 2817 2818 2819 2820 2822 2824
2703 2704 2704 2706 2708 2710 2712 2713 2715 2716 2717 2718 2721 2723 2725 2727 2729 2731 2733 2735 2737 2739 2742 2744 2746 2749 2752 2755 2758 2761 2764 2767 2770 2773 2775 2778 2780 2782 2784 2785 2788 2789 2790 2792 2794 2795 2797 2799 2801 2803 2804 2806 2808 2810 2812 2813 2814 2815 2816 2817 2819 2820 2823
2699 2699 2700 2702 2704 2706 2708 2709 2710 2711 2713 2715 2717 2719 2721 2723 2725 2727 2729 2731 2733 2736 2738 2741 2743 2747 2750 2753 2755 2758 2761 2765 2768 2770 2772 2775 2777 2779 2780 2782 2784 2786 2788 2789 2791 2792 2794 2796 2798 2800 2802 2803 2806 2808 2809 2810 2812 2813 2814 2816 2817 2819 2821
2694 2695 2697 2698 2700 2702 2704 2705 2706 2708 2709 2711 2713 2715 2718 2720 2722 2723 2725 2728 2730 2733 2735 2738 2741 2744 2747 2750 2752 2755 2759 2762 2764 2767 2769 2771 2773 2775 2777 2779 2781 2783 2785 2787 2788 2789 2791 2793 2795 2796 2798 2800 2802 2804 2806 2807 2809 2810 2812 2814 2816 2817 2819
2691 2692 2693 2695 2697 2699 2700 2701 2703 2704 2706 2708 2710 2712 2714 2716 2718 2720 2722 2724 2727 2730 2732 2735 2738 2741 2744 2746 2749 2752 2755 2758 2760 2763 2766 2767 2769 2771 2773 2776 2778 2780 2782 2784 2785 2786 2788 2790 2792 2794 2795 2797 2798 2800 2802 2804 2806 2808 2810 2812 2813 2815 2817
2687 2688 2690 2692 2693 2695 2697 2699 2700 2702 2704 2705 2707 2709 2711 2713 2715 2717 2719 2721 2724 2726 2729 2732 2734 2737 2740 2743 2746 2749 2751 2754 2757 2759 2761 2763 2765 2768 2770 2773 2775 2777 2779 2781 2782 2784 2786 2788 2790 2791 2793 2794 2795 2797 2799 2801 2803 2805 2807 2809 2810 2811 2814
2684 2685 2686 2688 2690 2693 2695 2696 2698 2699 2701 2703 2704 2706 2708 2710 2712 2714 2716 2718 2721 2723 2726 2729 2731 2734 2736 2739 2742 2745 2748 2750 2753 2755 2757 2759 2762 2765 2767 2770 2772 2774 2776 2778 2780 2781 2783 2785 2787 2789 2790 2791 2793 2795 2796 2798 2800 2802 2803 2805 2806 2808 2810
2681 2682 2684 2686 2688 2691 2693 2694 2695 2697 2698 2700 2701 2703 2705 2707 2709 2711 2713 2716 2719 2721 2724 2726 2728 2730 2733 2735 2738 2741 2743 2746 2748 2751 2753 2755 2758 2762 2765 2767 2769 2771 2773 2775 2776 2778 2780 2782 2784 2786 2787 2789 2790 2792 2794 2795 2797 2798 2800 2801 2803 2805 2807
2679 2681 2683 2685 2686 2688 2690 2692 2693 2694 2696 2697 2699 2701 2703 2705 2707 2709 2711 2714 2716 2719 2721 2723 2725 2728 2730 2732 2735 2737 2740 2742 2744 2747 2750 2752 2755 2759 2761 2763 2765 2768 2770 2772 2773 2775 2777 2779 2781 2782 2784 2786 2787 2789 2791 2792 2794 2796 2797 2798 2800 2802 2804
2678 2680 2681 2683 2684 2686 2688 2690 2691 2693 2694 2696 2697 2699 2701 2703 2705 2707 2709 2712 2714 2716 2719 2721 2723 2725 2728 2730 2732 2735 2737 2739 2742 2744 2747 2749 2752 2755 2757 2759 2762 2764 2767 2769 2770 2772 2774 2775 2777 2779 2780 2782 2784 2786 2788 2789 2791 2792 2794 2795 2797 2798 2800
2676 2678 2679 2681 2683 2684 2686 2688 2689 2691 2692 2694 2696 2697 2699 2701 2703 2705 2708 2710 2712 2714 2716 2718 2720 2723 2725 2727 2729 2732 2734 2736 2739 2741 2744 2746 2749 2751 2753 2756 2759 2761 2763 2765 2767 2768 2770 2772 2774 2775 2777 2779 2780 2782 2784 2786 2787 2789 2791 2792 2794 2795 2797
2674 2676 2678 2679 2681 2683 2685 2686 2688 2689 2691 2692 2694 2696 2698 2700 2702 2704 2706 2708 2709 2711 2713 2715 2717 2719 2721 2724 2726 2729 2731 2733 2736 2739 2741 2743 2745 2748 2750 2753 2756 2758 2760 2762 2763 2765 2767 2769 2770 2772 2774 2775 2777 2779 2781 2782 2784 2785 2787 2789 2790 2792 2794
2673 2675 2676 2678 2680 2682 2684 2685 2687 2688 2690 2691 2693 2694 2696 2698 2700 2702 2704 2705 2707 2708 2710 2712 2714 2716 2718 2721 2723 2725 2728 2730 2733 2736 2738 2740 2742 2745 2748 2750 2752 2754 2756 2758 2760 2762 2763 2765 2767 2769 2770 2772 2773 2775 2777 2779 2780 2782 2784 2785 2787 2789 2791
2672 2674 2676 2677 2679 2681 2683 2684 2685 2687 2688 2690 2691 2693 2694 2696 2698 2700 2701 2703 2705 2706 2708 2710 2712 2714 2716 2718 2720 2722 2725 2728 2730 2732 2735 2737 2740 2742 2745 2747 2749 2751 2753 2755 2757 2758 2760 2762 2764 2766 2767 2769 2770 2772 2773 2775 2777 2779 2781 2782 2784 2785 2787
2672 2673 2675 2677 2679 2680 2681 2683 2684 2686 2687 2688 2690 2691 2693 2694 2696 2698 2699 2701 2703 2704 2706 2708 2709 2711 2713 2715 2717 2720 2722 2725 2727 2729 2732 2734 2737 2739 2742 2744 2746 2748 2750 2751 2753 2755 2757 2759 2760 2762 2763 2765 2767 2768 2770 2771 2773 2775 2777 2779 2781 2782 2784